QPF
0.00 0.00 0.00 0.00 0.00 0.00 0.00 0.00 0.00 0.00 0.00 0.00 0.00 0.00 0.00 0.00 0.00 0.00 0.00 0.00 0.00 0.00 0.00 0.00 0.00 0.00 0.00 0.00 0.00 0.00 0.00 0.00 0.00 0.00 0.00 0.00 0.00 0.00 0.00 0.00 0.00 0.00 0.00
0.00 0.00 0.00 0.00 0.00 0.00 0.00 0.00 0.00 0.00 0.00 0.00 0.00 0.00 0.00 0.00 0.00 0.00 0.00 0.00 0.00 0.00 0.00 0.00 0.00 0.00 0.00 0.00 0.00 0.00 0.00 0.00 0.00 0.00 0.00 0.00 0.00 0.00 0.00 0.00 0.00 0.00 0.00
0.00 0.00 0.00 0.00 0.00 0.00 0.00 0.00 0.00 0.00 0.00 0.00 0.00 0.00 0.00 0.00 0.00 0.00 0.00 0.00 0.00 0.00 0.00 0.00 0.00 0.00 0.00 0.00 0.00 0.00 0.00 0.00 0.00 0.00 0.00 0.00 0.00 0.00 0.00 0.00 0.00 0.00 0.00
0.00 0.00 0.00 0.00 0.00 0.00 0.00 0.00 0.00 0.00 0.00 0.00 0.00 0.00 0.00 0.00 0.00 0.00 0.00 0.00 0.00 0.00 0.00 0.00 0.00 0.00 0.00 0.00 0.00 0.00 0.00 0.00 0.00 0.00 0.00 0.00 0.00 0.00 0.00 0.00 0.00 0.00 0.00
0.00 0.00 0.00 0.00 0.00 0.00 0.00 0.00 0.00 0.00 0.00 0.00 0.00 0.00 0.00 0.00 0.00 0.00 0.00 0.00 0.00 0.00 0.00 0.00 0.00 0.00 0.00 0.00 0.00 0.00 0.00 0.00 0.00 0.00 0.00 0.00 0.00 0.00 0.00 0.00 0.00 0.00 0.00
0.00 0.00 0.00 0.00 0.00 0.00 0.00 0.00 0.00 0.00 0.00 0.00 0.00 0.00 0.00 0.00 0.00 0.00 0.00 0.00 0.00 0.00 0.00 0.00 0.00 0.00 0.00 0.00 0.00 0.00 0.00 0.00 0.00 0.00 0.00 0.00 0.00 0.00 0.00 0.00 0.00 0.00 0.00
0.00 0.00 0.00 0.00 0.00 0.00 0.00 0.00 0.00 0.00 0.00 0.00 0.00 0.00 0.00 0.00 0.00 0.00 0.00 0.00 0.00 0.00 0.00 0.00 0.00 0.00 0.00 0.00 0.00 0.00 0.00 0.00 0.00 0.00 0.00 0.00 0.00 0.00 0.00 0.00 0.00 0.00 0.00
0.01 0.00 0.00 0.01 0.00 0.00 0.01 0.01 0.01 0.00 0.00 0.00 0.01 0.00 0.00 0.00 0.00 0.00 0.00 0.00 0.00 0.00 0.00 0.00 0.00 0.00 0.00 0.00 0.00 0.00 0.00 0.00 0.00 0.00 0.00 0.00 0.00 0.00 0.00 0.00 0.00 0.00 0.00
0.01 0.01 0.02 0.01 0.01 0.01 0.01 0.01 0.01 0.01 0.01 0.01 0.01 0.01 0.01 0.00 0.00 0.00 0.00 0.00 0.00 0.00 0.00 0.00 0.00 0.01 0.01 0.01 0.01 0.01 0.02 0.02 0.02 0.02 0.02 0.01 0.01 0.01 0.01 0.01 0.00 0.00 0.00
0.02 0.02 0.02 0.01 0.01 0.01 0.01 0.01 0.01 0.02 0.02 0.02 0.01 0.01 0.01 0.01 0.01 0.01 0.00 0.00 0.01 0.01 0.01 0.01 0.01 0.01 0.02 0.02 0.03 0.04 0.06 0.06 0.06 0.06 0.05 0.04 0.03 0.02 0.02 0.01 0.01 0.01 0.01
0.01 0.02 0.02 0.01 0.01 0.01 0.02 0.02 0.02 0.03 0.03 0.03 0.03 0.03 0.03 0.02 0.02 0.02 0.02 0.01 0.02 0.03 0.03 0.03 0.03 0.03 0.04 0.05 0.06 0.07 0.09 0.10 0.10 0.09 0.07 0.06 0.05 0.04 0.03 0.03 0.03 0.02 0.02
0.02 0.01 0.02 0.02 0.02 0.02 0.02 0.03 0.04 0.04 0.04 0.04 0.04 0.04 0.04 0.04 0.04 0.05 0.05 0.04 0.04 0.04 0.05 0.05 0.05 0.06 0.07 0.07 0.08 0.09 0.09 0.10 0.10 0.11 0.11 0.10 0.09 0.07 0.05 0.04 0.03 0.03 0.02
0.01 0.01 0.01 0.01 0.01 0.02 0.03 0.04 0.04 0.05 0.06 0.06 0.06 0.06 0.06 0.07 0.07 0.08 0.09 0.08 0.07 0.06 0.06 0.06 0.07 0.09 0.10 0.11 0.12 0.15 0.16 0.16 0.16 0.15 0.14 0.13 0.11 0.08 0.06 0.04 0.03 0.02 0.02
0.01 0.01 0.01 0.01 0.01 0.01 0.02 0.03 0.04 0.05 0.07 0.07 0.08 0.08 0.07 0.07 0.07 0.08 0.10 0.11 0.11 0.09 0.08 0.08 0.10 0.12 0.15 0.17 0.19 0.20 0.18 0.19 0.17 0.16 0.14 0.12 0.09 0.06 0.04 0.02 0.02 0.01 0.01
0.00 0.00 0.01 0.01 0.01 0.01 0.01 0.02 0.03 0.04 0.05 0.06 0.06 0.07 0.07 0.07 0.08 0.09 0.11 0.13 0.16 0.15 0.14 0.13 0.14 0.17 0.19 0.20 0.20 0.18 0.14 0.15 0.14 0.11 0.09 0.07 0.06 0.04 0.03 0.02 0.01 0.01 0.01
0.00 0.00 0.01 0.01 0.01 0.01 0.01 0.01 0.02 0.02 0.03 0.03 0.04 0.05 0.06 0.07 0.07 0.08 0.10 0.12 0.14 0.17 0.16 0.13 0.13 0.14 0.15 0.15 0.16 0.13 0.10 0.11 0.09 0.07 0.06 0.05 0.04 0.04 0.03 0.02 0.01 0.01 0.01
0.00 0.00 0.01 0.01 0.01 0.01 0.01 0.01 0.01 0.02 0.02 0.02 0.03 0.04 0.04 0.05 0.05 0.06 0.06 0.08 0.10 0.13 0.16 0.16 0.15 0.16 0.15 0.13 0.11 0.09 0.07 0.07 0.06 0.06 0.05 0.04 0.03 0.02 0.01 0.01 0.00 0.00 0.00
0.00 0.00 0.00 0.00 0.00 0.01 0.01 0.01 0.01 0.01 0.01 0.01 0.02 0.02 0.03 0.03 0.04 0.04 0.05 0.06 0.07 0.09 0.12 0.14 0.13 0.12 0.11 0.09 0.08 0.07 0.05 0.04 0.03 0.03 0.02 0.02 0.01 0.01 0.00 0.00 0.00 0.00 0.00
0.00 0.00 0.00 0.00 0.00 0.00 0.00 0.00 0.00 0.01 0.01 0.01 0.01 0.02 0.02 0.03 0.03 0.04 0.05 0.06 0.07 0.09 0.10 0.11 0.11 0.10 0.09 0.07 0.06 0.04 0.03 0.02 0.01 0.01 0.01 0.01 0.01 0.00 0.00 0.00 0.00 0.00 0.00
0.00 0.00 0.00 0.00 0.00 0.00 0.00 0.00 0.00 0.00 0.00 0.01 0.01 0.01 0.02 0.03 0.04 0.05 0.06 0.07 0.08 0.09 0.10 0.10 0.08 0.07 0.06 0.04 0.03 0.02 0.01 0.01 0.01 0.01 0.00 0.00 0.00 0.00 0.00 0.00 0.00 0.00 0.00
0.00 0.00 0.00 0.00 0.00 0.00 0.00 0.00 0.00 0.00 0.00 0.00 0.00 0.01 0.01 0.03 0.04 0.04 0.04 0.06 0.06 0.06 0.06 0.05 0.05 0.04 0.03 0.02 0.02 0.01 0.01 0.01 0.01 0.00 0.00 0.00 0.00 0.00 0.00 0.00 0.00 0.00 0.00
0.00 0.00 0.00 0.00 0.00 0.00 0.00 0.00 0.00 0.00 0.00 0.01 0.01 0.01 0.02 0.03 0.03 0.04 0.04 0.05 0.04 0.04 0.04 0.04 0.04 0.03 0.03 0.02 0.01 0.01 0.01 0.01 0.00 0.00 0.00 0.00 0.00 0.00 0.00 0.00 0.00 0.00 0.00
0.00 0.00 0.00 0.00 0.00 0.00 0.00 0.00 0.00 0.00 0.00 0.01 0.01 0.02 0.02 0.03 0.04 0.04 0.04 0.04 0.03 0.03 0.02 0.02 0.02 0.02 0.01 0.01 0.00 0.00 0.00 0.00 0.00 0.00 0.00 0.00 0.00 0.00 0.00 0.00 0.00 0.00 0.00
0.00 0.00 0.00 0.00 0.00 0.00 0.00 0.00 0.00 0.00 0.00 0.00 0.01 0.02 0.02 0.03 0.03 0.03 0.02 0.02 0.02 0.02 0.02 0.01 0.01 0.01 0.00 0.00 0.00 0.00 0.00 0.00 0.00 0.00 0.00 0.00 0.00 0.00 0.00 0.00 0.00 0.00 0.00
0.00 0.00 0.00 0.00 0.00 0.00 0.00 0.00 0.00 0.00 0.00 0.01 0.01 0.01 0.01 0.01 0.01 0.02 0.01 0.01 0.01 0.01 0.01 0.01 0.00 0.00 0.00 0.00 0.00 0.00 0.00 0.00 0.00 0.00 0.00 0.00 0.00 0.00 0.00 0.00 0.00 0.00 0.00
0.00 0.00 0.00 0.00 0.00 0.00 0.00 0.00 0.00 0.00 0.00 0.01 0.01 0.02 0.02 0.01 0.01 0.01 0.00 0.00 0.00 0.00 0.00 0.00 0.00 0.00 0.00 0.00 0.00 0.00 0.00 0.00 0.00 0.00 0.00 0.00 0.00 0.00 0.00 0.00 0.00 0.00 0.00
MSLP
1019.66 1019.89 1020.09 1020.27 1020.43 1020.57 1020.70 1020.83 1020.95 1021.08 1021.20 1021.31 1021.42 1021.50 1021.58 1021.65 1021.72 1021.80 1021.89 1022.00 1022.12 1022.26 1022.40 1022.53 1022.66 1022.78 1022.88 1022.98 1023.06 1023.12 1023.18 1023.23 1023.27 1023.31 1023.35 1023.38 1023.40 1023.42 1023.42 1023.40 1023.36 1023.29 1023.20
1019.36 1019.58 1019.78 1019.96 1020.14 1020.30 1020.47 1020.63 1020.79 1020.95 1021.10 1021.23 1021.35 1021.44 1021.52 1021.59 1021.65 1021.72 1021.80 1021.89 1022.01 1022.14 1022.29 1022.44 1022.59 1022.73 1022.87 1022.98 1023.09 1023.18 1023.26 1023.32 1023.38 1023.44 1023.48 1023.51 1023.53 1023.54 1023.54 1023.51 1023.46 1023.40 1023.31
1018.96 1019.17 1019.39 1019.60 1019.81 1020.03 1020.24 1020.45 1020.65 1020.85 1021.03 1021.19 1021.32 1021.42 1021.50 1021.57 1021.62 1021.66 1021.72 1021.79 1021.88 1022.00 1022.13 1022.28 1022.43 1022.59 1022.75 1022.90 1023.04 1023.17 1023.28 1023.39 1023.48 1023.55 1023.61 1023.65 1023.67 1023.67 1023.65 1023.61 1023.55 1023.47 1023.39
1018.50 1018.72 1018.97 1019.22 1019.49 1019.76 1020.03 1020.29 1020.54 1020.78 1020.99 1021.17 1021.32 1021.43 1021.52 1021.57 1021.61 1021.63 1021.66 1021.70 1021.75 1021.83 1021.94 1022.06 1022.21 1022.38 1022.55 1022.73 1022.91 1023.08 1023.25 1023.40 1023.54 1023.64 1023.73 1023.77 1023.79 1023.78 1023.74 1023.67 1023.60 1023.51 1023.43
1018.02 1018.27 1018.55 1018.85 1019.18 1019.50 1019.83 1020.14 1020.43 1020.69 1020.93 1021.13 1021.29 1021.42 1021.51 1021.57 1021.60 1021.61 1021.61 1021.61 1021.63 1021.66 1021.73 1021.82 1021.95 1022.11 1022.29 1022.50 1022.71 1022.94 1023.16 1023.36 1023.55 1023.70 1023.81 1023.87 1023.88 1023.86 1023.79 1023.70 1023.60 1023.50 1023.41
1017.55 1017.82 1018.13 1018.48 1018.84 1019.21 1019.58 1019.92 1020.24 1020.53 1020.78 1021.00 1021.18 1021.32 1021.43 1021.50 1021.53 1021.54 1021.53 1021.51 1021.49 1021.49 1021.52 1021.58 1021.68 1021.82 1022.00 1022.22 1022.47 1022.73 1023.00 1023.27 1023.50 1023.69 1023.83 1023.91 1023.92 1023.88 1023.80 1023.68 1023.55 1023.43 1023.33
1017.11 1017.38 1017.70 1018.06 1018.44 1018.84 1019.22 1019.58 1019.91 1020.21 1020.47 1020.71 1020.91 1021.07 1021.20 1021.30 1021.36 1021.38 1021.38 1021.35 1021.33 1021.31 1021.31 1021.34 1021.42 1021.55 1021.72 1021.94 1022.21 1022.50 1022.81 1023.12 1023.39 1023.62 1023.79 1023.88 1023.90 1023.85 1023.74 1023.60 1023.45 1023.32 1023.20
1016.70 1016.94 1017.24 1017.58 1017.95 1018.33 1018.70 1019.05 1019.37 1019.67 1019.94 1020.19 1020.41 1020.61 1020.78 1020.92 1021.02 1021.08 1021.11 1021.12 1021.11 1021.09 1021.09 1021.12 1021.18 1021.30 1021.47 1021.69 1021.96 1022.27 1022.60 1022.93 1023.24 1023.49 1023.68 1023.79 1023.81 1023.76 1023.64 1023.48 1023.31 1023.16 1023.04
1016.33 1016.50 1016.74 1017.02 1017.34 1017.67 1018.01 1018.32 1018.63 1018.91 1019.18 1019.44 1019.69 1019.93 1020.15 1020.34 1020.50 1020.63 1020.72 1020.78 1020.81 1020.84 1020.87 1020.91 1020.98 1021.10 1021.26 1021.48 1021.75 1022.06 1022.39 1022.73 1023.05 1023.32 1023.52 1023.64 1023.67 1023.62 1023.49 1023.33 1023.16 1022.99 1022.86
1016.00 1016.09 1016.23 1016.43 1016.66 1016.92 1017.19 1017.46 1017.72 1017.99 1018.25 1018.52 1018.80 1019.08 1019.35 1019.60 1019.84 1020.04 1020.21 1020.34 1020.45 1020.54 1020.62 1020.71 1020.81 1020.95 1021.12 1021.34 1021.60 1021.90 1022.23 1022.56 1022.87 1023.14 1023.34 1023.46 1023.50 1023.45 1023.33 1023.17 1023.00 1022.84 1022.71
1015.76 1015.74 1015.78 1015.87 1016.00 1016.16 1016.35 1016.55 1016.77 1017.01 1017.27 1017.55 1017.85 1018.16 1018.48 1018.80 1019.10 1019.38 1019.63 1019.85 1020.05 1020.22 1020.38 1020.53 1020.69 1020.86 1021.06 1021.28 1021.54 1021.82 1022.12 1022.43 1022.72 1022.97 1023.16 1023.28 1023.32 1023.28 1023.18 1023.03 1022.86 1022.70 1022.58
1015.64 1015.52 1015.45 1015.43 1015.45 1015.51 1015.61 1015.74 1015.91 1016.12 1016.37 1016.66 1016.98 1017.32 1017.68 1018.05 1018.41 1018.75 1019.08 1019.38 1019.66 1019.92 1020.16 1020.39 1020.62 1020.84 1021.07 1021.30 1021.55 1021.81 1022.08 1022.36 1022.61 1022.84 1023.01 1023.12 1023.16 1023.13 1023.04 1022.90 1022.75 1022.60 1022.47
1015.67 1015.47 1015.31 1015.18 1015.10 1015.07 1015.08 1015.16 1015.28 1015.47 1015.71 1016.00 1016.33 1016.69 1017.08 1017.47 1017.86 1018.25 1018.63 1018.99 1019.34 1019.68 1020.00 1020.31 1020.60 1020.88 1021.14 1021.40 1021.64 1021.88 1022.12 1022.34 1022.55 1022.74 1022.88 1022.97 1023.00 1022.98 1022.90 1022.78 1022.64 1022.50 1022.38
1015.87 1015.61 1015.38 1015.17 1015.01 1014.90 1014.86 1014.88 1014.97 1015.14 1015.37 1015.66 1016.00 1016.37 1016.76 1017.16 1017.57 1017.96 1018.36 1018.76 1019.15 1019.54 1019.93 1020.30 1020.65 1020.98 1021.28 1021.55 1021.79 1022.00 1022.20 1022.38 1022.54 1022.67 1022.77 1022.83 1022.85 1022.82 1022.75 1022.64 1022.52 1022.39 1022.27
1016.21 1015.93 1015.66 1015.41 1015.20 1015.04 1014.95 1014.94 1015.02 1015.18 1015.41 1015.71 1016.04 1016.41 1016.80 1017.18 1017.57 1017.95 1018.34 1018.73 1019.14 1019.55 1019.97 1020.38 1020.77 1021.13 1021.46 1021.73 1021.97 1022.16 1022.31 1022.44 1022.53 1022.61 1022.66 1022.68 1022.68 1022.64 1022.56 1022.47 1022.35 1022.23 1022.11
1016.67 1016.40 1016.12 1015.85 1015.61 1015.44 1015.33 1015.32 1015.39 1015.56 1015.80 1016.10 1016.44 1016.80 1017.17 1017.52 1017.87 1018.22 1018.56 1018.92 1019.31 1019.71 1020.12 1020.54 1020.95 1021.32 1021.65 1021.93 1022.15 1022.31 1022.42 1022.49 1022.52 1022.54 1022.53 1022.51 1022.47 1022.40 1022.32 1022.23 1022.12 1022.00 1021.88
1017.19 1016.94 1016.68 1016.42 1016.20 1016.03 1015.94 1015.93 1016.02 1016.20 1016.46 1016.78 1017.12 1017.47 1017.81 1018.13 1018.43 1018.72 1019.00 1019.30 1019.63 1019.99 1020.37 1020.77 1021.16 1021.53 1021.85 1022.11 1022.30 1022.43 1022.49 1022.51 1022.49 1022.44 1022.38 1022.30 1022.22 1022.12 1022.02 1021.92 1021.80 1021.69 1021.58
1017.73 1017.52 1017.29 1017.07 1016.87 1016.73 1016.66 1016.68 1016.80 1017.01 1017.29 1017.61 1017.96 1018.30 1018.61 1018.89 1019.14 1019.36 1019.58 1019.81 1020.06 1020.36 1020.68 1021.03 1021.39 1021.72 1022.02 1022.25 1022.42 1022.51 1022.54 1022.51 1022.43 1022.33 1022.20 1022.08 1021.94 1021.81 1021.68 1021.55 1021.43 1021.31 1021.19
1018.25 1018.08 1017.90 1017.72 1017.57 1017.46 1017.43 1017.49 1017.64 1017.87 1018.17 1018.50 1018.85 1019.18 1019.47 1019.71 1019.90 1020.06 1020.20 1020.36 1020.54 1020.75 1021.01 1021.30 1021.60 1021.89 1022.15 1022.36 1022.49 1022.56 1022.55 1022.48 1022.36 1022.20 1022.03 1021.85 1021.67 1021.49 1021.32 1021.16 1021.02 1020.88 1020.76
1018.74 1018.63 1018.50 1018.37 1018.26 1018.20 1018.21 1018.29 1018.46 1018.71 1019.02 1019.36 1019.70 1020.01 1020.27 1020.47 1020.62 1020.72 1020.80 1020.88 1020.99 1021.13 1021.32 1021.54 1021.78 1022.03 1022.25 1022.42 1022.53 1022.57 1022.54 1022.44 1022.29 1022.10 1021.89 1021.66 1021.43 1021.21 1020.99 1020.79 1020.61 1020.45 1020.31
1019.23 1019.16 1019.09 1019.01 1018.95 1018.93 1018.96 1019.07 1019.25 1019.50 1019.80 1020.12 1020.44 1020.73 1020.96 1021.12 1021.23 1021.28 1021.30 1021.32 1021.37 1021.44 1021.57 1021.73 1021.93 1022.13 1022.31 1022.46 1022.55 1022.57 1022.53 1022.42 1022.26 1022.05 1021.80 1021.54 1021.27 1021.00 1020.73 1020.48 1020.25 1020.05 1019.88
1019.72 1019.72 1019.69 1019.67 1019.65 1019.66 1019.71 1019.82 1019.99 1020.22 1020.49 1020.78 1021.06 1021.30 1021.50 1021.62 1021.69 1021.70 1021.68 1021.66 1021.65 1021.68 1021.76 1021.87 1022.02 1022.19 1022.34 1022.47 1022.55 1022.57 1022.53 1022.42 1022.25 1022.04 1021.78 1021.49 1021.18 1020.87 1020.55 1020.25 1019.97 1019.71 1019.49
1020.24 1020.29 1020.33 1020.34 1020.36 1020.39 1020.44 1020.54 1020.68 1020.87 1021.09 1021.33 1021.55 1021.75 1021.89 1021.97 1022.00 1021.98 1021.93 1021.87 1021.84 1021.83 1021.87 1021.96 1022.07 1022.21 1022.35 1022.46 1022.54 1022.56 1022.53 1022.44 1022.28 1022.07 1021.81 1021.50 1021.17 1020.82 1020.46 1020.10 1019.76 1019.44 1019.16
1020.77 1020.89 1020.97 1021.03 1021.08 1021.11 1021.16 1021.22 1021.32 1021.45 1021.61 1021.78 1021.93 1022.06 1022.15 1022.19 1022.18 1022.13 1022.06 1021.99 1021.93 1021.91 1021.93 1021.99 1022.08 1022.20 1022.32 1022.43 1022.50 1022.54 1022.52 1022.44 1022.30 1022.10 1021.85 1021.54 1021.20 1020.82 1020.42 1020.01 1019.61 1019.23 1018.89
1021.29 1021.47 1021.60 1021.69 1021.75 1021.78 1021.81 1021.84 1021.89 1021.96 1022.05 1022.14 1022.23 1022.29 1022.33 1022.32 1022.28 1022.21 1022.12 1022.04 1021.97 1021.94 1021.94 1021.98 1022.06 1022.16 1022.26 1022.36 1022.43 1022.47 1022.46 1022.39 1022.27 1022.09 1021.85 1021.55 1021.20 1020.80 1020.38 1019.93 1019.48 1019.05 1018.65
1021.76 1021.98 1022.15 1022.26 1022.32 1022.35 1022.36 1022.35 1022.36 1022.37 1022.40 1022.42 1022.45 1022.46 1022.44 1022.40 1022.33 1022.24 1022.15 1022.05 1021.98 1021.94 1021.93 1021.96 1022.01 1022.09 1022.17 1022.25 1022.31 1022.34 1022.33 1022.27 1022.16 1021.99 1021.76 1021.47 1021.12 1020.72 1020.28 1019.82 1019.34 1018.86 1018.41
Thickness
5695 5693 5690 5688 5686 5684 5682 5680 5677 5675 5674 5672 5671 5669 5667 5665 5663 5661 5658 5656 5653 5650 5647 5644 5642 5638 5636 5633 5630 5627 5625 5622 5620 5618 5616 5614 5612 5610 5609 5608 5608 5607 5607
5693 5690 5687 5685 5683 5681 5679 5677 5674 5672 5670 5668 5667 5665 5664 5661 5659 5656 5654 5651 5649 5646 5643 5640 5637 5634 5631 5628 5624 5621 5618 5615 5613 5611 5609 5607 5605 5604 5603 5602 5601 5600 5600
5690 5688 5685 5683 5680 5678 5676 5673 5670 5668 5666 5664 5663 5661 5660 5657 5655 5652 5650 5647 5644 5641 5638 5635 5632 5629 5625 5622 5619 5615 5612 5609 5606 5604 5602 5600 5599 5597 5596 5595 5594 5594 5593
5688 5685 5683 5681 5678 5675 5672 5669 5666 5663 5661 5659 5657 5656 5654 5652 5650 5648 5645 5642 5639 5636 5632 5629 5626 5623 5620 5616 5613 5609 5606 5602 5599 5596 5594 5593 5591 5590 5589 5588 5587 5587 5587
5686 5684 5681 5679 5676 5672 5669 5666 5663 5660 5657 5654 5652 5650 5648 5647 5645 5642 5639 5636 5633 5630 5627 5624 5620 5617 5613 5610 5607 5603 5599 5595 5592 5589 5587 5585 5583 5582 5581 5580 5580 5580 5579
5684 5681 5679 5676 5673 5670 5666 5663 5659 5656 5653 5649 5646 5644 5642 5640 5639 5636 5634 5630 5627 5624 5621 5618 5614 5610 5607 5603 5599 5596 5592 5588 5585 5581 5579 5577 5575 5574 5573 5572 5572 5571 5572
5680 5678 5676 5673 5670 5667 5664 5660 5655 5651 5647 5642 5638 5635 5634 5633 5632 5630 5627 5624 5621 5618 5614 5611 5607 5604 5599 5595 5591 5588 5584 5581 5577 5574 5571 5569 5567 5565 5564 5563 5563 5563 5563
5676 5674 5672 5669 5666 5663 5659 5655 5651 5646 5642 5637 5631 5625 5623 5624 5625 5624 5620 5617 5615 5611 5608 5604 5600 5596 5592 5588 5583 5579 5575 5572 5568 5565 5562 5560 5557 5556 5555 5554 5554 5554 5554
5671 5670 5668 5665 5662 5659 5655 5651 5647 5642 5637 5631 5628 5623 5617 5617 5616 5615 5613 5610 5607 5603 5600 5595 5591 5587 5582 5578 5574 5569 5565 5561 5557 5555 5552 5550 5547 5546 5545 5545 5544 5544 5544
5665 5664 5662 5660 5657 5654 5651 5648 5644 5639 5634 5628 5621 5619 5617 5615 5608 5607 5605 5601 5597 5593 5590 5586 5582 5577 5573 5568 5563 5559 5554 5548 5545 5542 5540 5538 5536 5535 5534 5534 5534 5533 5533
5658 5657 5656 5654 5652 5649 5646 5643 5639 5635 5631 5626 5619 5613 5608 5604 5601 5598 5597 5592 5586 5583 5579 5575 5571 5567 5563 5558 5553 5548 5543 5537 5532 5529 5528 5526 5525 5524 5523 5523 5523 5522 5522
5649 5649 5648 5647 5645 5643 5640 5637 5634 5629 5625 5621 5616 5610 5605 5599 5595 5590 5589 5584 5578 5572 5567 5563 5559 5555 5550 5545 5541 5535 5530 5525 5521 5517 5515 5514 5512 5511 5511 5511 5511 5510 5510
5640 5640 5639 5638 5637 5635 5633 5630 5627 5623 5619 5615 5611 5606 5601 5596 5591 5586 5581 5576 5567 5560 5554 5549 5545 5541 5536 5532 5527 5522 5518 5514 5509 5506 5503 5501 5500 5499 5499 5499 5498 5499 5498
5632 5631 5630 5629 5628 5626 5624 5621 5618 5614 5610 5606 5602 5598 5593 5587 5582 5576 5571 5564 5555 5548 5541 5537 5531 5527 5523 5519 5514 5509 5505 5500 5497 5495 5492 5490 5488 5487 5487 5486 5486 5486 5486
5622 5622 5621 5619 5618 5616 5614 5611 5608 5604 5600 5596 5591 5587 5581 5576 5571 5565 5560 5554 5547 5542 5536 5526 5518 5513 5509 5504 5500 5496 5492 5488 5485 5482 5480 5478 5477 5476 5475 5475 5475 5475 5474
5611 5611 5610 5609 5607 5605 5603 5600 5597 5593 5589 5584 5579 5575 5569 5563 5558 5552 5547 5541 5535 5530 5524 5514 5506 5500 5496 5492 5488 5484 5479 5476 5473 5470 5469 5468 5467 5466 5464 5464 5464 5464 5463
5598 5598 5598 5596 5595 5593 5590 5588 5584 5580 5576 5571 5567 5562 5556 5551 5544 5538 5533 5526 5520 5514 5509 5500 5492 5487 5483 5479 5475 5472 5467 5464 5462 5459 5458 5457 5456 5455 5454 5453 5452 5452 5452
5585 5584 5584 5583 5581 5579 5576 5574 5570 5567 5563 5558 5552 5548 5542 5536 5530 5524 5519 5512 5506 5500 5495 5487 5480 5474 5471 5467 5463 5460 5457 5453 5451 5449 5447 5447 5446 5444 5443 5442 5441 5441 5440
5571 5570 5570 5569 5566 5564 5562 5559 5556 5552 5548 5543 5538 5533 5528 5523 5516 5510 5504 5498 5492 5487 5481 5474 5468 5463 5458 5456 5451 5448 5446 5443 5440 5438 5437 5436 5434 5432 5431 5430 5429 5428 5427
5557 5556 5555 5554 5551 5549 5547 5544 5541 5537 5533 5528 5523 5519 5514 5509 5503 5496 5490 5484 5478 5473 5467 5462 5456 5451 5448 5444 5440 5436 5433 5431 5428 5427 5426 5424 5422 5419 5418 5417 5416 5415 5413
5543 5542 5541 5540 5538 5536 5533 5530 5527 5523 5518 5514 5509 5505 5501 5496 5491 5485 5478 5472 5466 5461 5455 5450 5445 5440 5436 5432 5428 5425 5421 5418 5416 5415 5413 5411 5409 5407 5405 5404 5402 5401 5400
5530 5529 5528 5527 5526 5524 5521 5518 5514 5509 5505 5501 5496 5491 5487 5483 5479 5474 5469 5463 5457 5451 5445 5440 5435 5430 5426 5422 5418 5413 5408 5404 5402 5402 5399 5398 5397 5395 5394 5392 5390 5389 5388
5517 5516 5515 5514 5512 5510 5508 5505 5501 5496 5492 5487 5483 5479 5475 5470 5465 5461 5457 5452 5447 5443 5438 5431 5425 5420 5416 5412 5407 5402 5397 5392 5389 5388 5385 5385 5384 5382 5381 5379 5377 5376 5374
5505 5504 5502 5501 5500 5498 5496 5492 5488 5484 5479 5475 5471 5467 5462 5458 5455 5450 5445 5440 5435 5431 5427 5423 5418 5412 5408 5403 5398 5392 5387 5382 5379 5376 5373 5370 5370 5369 5369 5366 5364 5362 5360
5493 5492 5491 5489 5487 5485 5484 5480 5476 5472 5467 5463 5459 5456 5452 5448 5446 5442 5436 5430 5426 5421 5418 5414 5409 5404 5399 5394 5389 5382 5375 5369 5365 5363 5360 5356 5355 5354 5354 5354 5351 5348 5346
5483 5482 5480 5477 5476 5474 5473 5470 5466 5461 5457 5452 5449 5446 5443 5440 5437 5433 5427 5421 5416 5411 5407 5403 5398 5393 5387 5382 5377 5370 5363 5355 5349 5347 5347 5342 5339 5336 5338 5340 5337 5334 5332